Regional Weather Roundup
Issued by NWS

Home | Current Version | Previous Version | Text Only | Print | Product List | Glossary On
Versions: 1 2 3 4 5 6 7 8 9 10 11 12 13 14 15 16 17 18 19 20 21 22 23 24 25 26 27 28 29 30 31 32 33 34 35 36 37 38 39 40 41 42 43 44 45 46 47 48 49 50
000
ASUS44 KMEG 272110
RWRTN
TENNESSEE HOURLY STATE WEATHER ROUNDUP
NATIONAL WEATHER SERVICE MEMPHIS TN
300 PM CST FRI FEB 27 2015

TNZ002-004-019-021-049-052-054-088>092-272200-
WEST TENNESSEE

CITY           SKY/WX    TMP DP  RH WIND       PRES   REMARKS
MEMPHIS INTL   PTSUNNY   34  12  40 E12       30.51S WCI  25
NWS MEMPHIS      N/A     32 N/A N/A MISG        N/A
JACKSON        SUNNY     34  12  40 N8G18     30.50F WCI  27
DYERSBURG      MOSUNNY   27   7  43 NE8       30.58R WCI  18
UNION CITY     SUNNY     25  12  58 N8        30.56S WCI  16
PARIS          SUNNY     27  10  50 NE9       30.53F WCI  17
LEXINGTON      SUNNY     32   1  27 NE7       30.49S WCI  26
SAVANNAH       SUNNY     37   9  30 NE7       30.48F WCI  32
$$

TNZ008-025-027-028-033-062-065-066-272200-
NORTH MIDDLE TENNESSEE

CITY           SKY/WX    TMP DP  RH WIND       PRES   REMARKS
NASHVILLE      MOSUNNY   33  10  38 NE9       30.54R WCI  25
CLARKSVILLE    SUNNY     27  11  51 NE7       30.57R WCI  19
SMYRNA         SUNNY     34  11  38 N8        30.54R WCI  27
COOKEVILLE     SUNNY     30  12  47 VRB7      30.47S WCI  23
CROSSVILLE     SUNNY     29   8  41 NE10      30.42S WCI  20
$$

TNZ061-075-076-078-094-096-097-272200-
SOUTH MIDDLE TENNESSEE

CITY           SKY/WX    TMP DP  RH WIND       PRES   REMARKS
FAYETTEVILLE   SUNNY     32  12  43 NE9         N/A  WCI  24
TULLAHOMA      SUNNY     34  10  37 NE6       30.45F WCI  29
WINCHESTER     SUNNY     34  14  44 N9        30.46S WCI  26
MCMINNVILLE    SUNNY     32  10  40 VRB5      30.47S WCI  27
COLUMBIA         N/A     34  10  37 NE9       30.48R WCI  26
SHELBYVILLE    SUNNY     34  12  40 VRB7      30.49S WCI  28
$$

TNZ017-018-042-046-047-272200-
NORTHEAST TENNESSEE

CITY           SKY/WX    TMP DP  RH WIND       PRES   REMARKS
TRI CITIES     PTSUNNY   32  21  64 CALM      30.43S
ELIZABETHTON   CLOUDY    28  18  64 VRB3      30.43R
$$

TNZ012-013-036-069-073-074-272200-
CENTRAL EAST TENNESSEE

CITY           SKY/WX    TMP DP  RH WIND       PRES   REMARKS
KNOXVILLE      MOSUNNY   33  16  49 N7        30.46R WCI  27
OAK RIDGE      SUNNY     35  15  44 E8        30.48R WCI  29
GATLINBURG     CLEAR     34  16  47 CALM      30.45S
MORRISTOWN     CLEAR     32  16  51 NW7       30.45S WCI  26
$$

TNZ083-085-099-272200-
SOUTHEAST TENNESSEE

CITY           SKY/WX    TMP DP  RH WIND       PRES   REMARKS
CHATTANOOGA    MOSUNNY   40  17  39 N8        30.45S WCI  34
$$

SKY/WX REPORTED AS FAIR MEANS FEW OR NO CLOUDS BELOW
12 THOUSAND FEET.



USA.gov is the U.S. government's official web portal to all federal, state and local government web resources and services.